EA7JCM-13 Weather Reports


time (UTC)temp
F
wind
direction
speed
knots
gust
knots
rain 1hr
in
rain 24hr
in
rain mn
in
humidity
%
barometer
mb
20260504024503 56 182 1.7 3.5 0.00 0.00 0.00 74 1010.3
20260504024003 56 185 2.6 3.5 0.00 0.00 0.00 74 1010.6
20260504023503 56 177 2.6 6.1 0.00 0.00 0.00 74 1010.4
20260504023003 56 169 1.7 6.1 0.00 0.00 0.00 73 1010.4
20260504022504 56 168 2.6 5.2 0.00 0.00 0.00 73 1010.5
20260504022003 56 176 1.7 5.2 0.00 0.00 0.00 73 1010.4
20260504021504 57 176 2.6 5.2 0.00 0.00 0.00 73 1010.4
20260504021004 57 162 1.7 5.2 0.00 0.00 0.00 73 1010.4
20260504020503 57 166 2.6 5.2 0.00 0.00 0.00 73 1010.3
20260504020003 57 186 0.9 3.5 0.00 0.00 0.00 74 1010.4
20260504015504 57 176 1.7 3.5 0.00 0.00 0.00 74 1010.6
20260504015003 57 173 1.7 3.5 0.00 0.00 0.00 74 1010.6
20260504014504 57 189 1.7 3.5 0.00 0.00 0.00 74 1010.6
20260504014004 56 196 2.6 5.2 0.00 0.00 0.00 75 1010.6
20260504013503 56 188 1.7 5.2 0.00 0.00 0.00 75 1010.6
20260504013003 56 191 1.7 3.5 0.00 0.00 0.00 75 1010.7
20260504012503 56 193 2.6 5.2 0.00 0.00 0.00 75 1010.8
20260504012003 56 197 1.7 5.2 0.00 0.00 0.00 75 1010.9
20260504011504 56 190 2.6 3.5 0.00 0.00 0.00 75 1010.9
20260504011004 56 174 2.6 3.5 0.00 0.00 0.00 75 1011.2
20260504010503 56 175 2.6 5.2 0.00 0.00 0.00 74 1011.0
20260504010003 56 182 2.6 5.2 0.00 0.00 0.00 74 1011.1
20260504005504 56 192 3.5 5.2 0.00 0.00 0.00 74 1011.0
20260504005004 56 199 1.7 5.2 0.00 0.00 0.00 73 1011.2
20260504004505 57 192 1.7 6.1 0.00 0.00 0.00 73 1011.1
20260504004003 57 184 3.5 6.1 0.00 0.00 0.00 72 1011.5
20260504003504 57 188 3.5 6.1 0.00 0.00 0.00 72 1011.5
20260504003004 57 187 2.6 6.1 0.00 0.00 0.00 71 1011.2
20260504002503 57 175 3.5 7.8 0.00 0.00 0.00 71 1011.3
20260504002004 58 168 3.5 9.6 0.00 0.00 0.00 70 1011.3
20260504001503 58 177 3.5 9.6 0.00 0.00 0.00 70 1011.5
20260504001003 58 183 1.7 7.0 0.00 0.00 0.00 70 1011.6
20260504000504 58 181 4.3 7.0 0.00 0.00 0.00 71 1011.4
20260504000003 58 194 2.6 7.0 0.00 0.00 0.00 71 1011.6
20260503235503 58 204 4.3 7.0 0.00 0.00 0.00 72 1011.6
20260503235004 58 204 4.3 7.0 0.00 0.00 0.00 72 1011.4
20260503234504 58 203 3.5 7.0 0.00 0.00 0.00 72 1011.6
20260503234004 58 195 3.5 7.0 0.00 0.00 0.00 71 1011.5
20260503233504 58 197 3.5 7.8 0.00 0.00 0.00 71 1011.5
20260503233003 58 197 3.5 7.8 0.00 0.00 0.00 70 1011.5
20260503232504 58 195 4.3 7.8 0.00 0.00 0.00 70 1011.5
20260503232004 58 195 3.5 7.0 0.00 0.00 0.00 70 1011.5
20260503231503 58 198 3.5 7.8 0.00 0.00 0.00 70 1011.7
20260503231004 58 192 3.5 9.6 0.00 0.00 0.00 70 1011.7
20260503230504 58 185 3.5 9.6 0.00 0.00 0.00 70 1011.5
20260503230004 58 193 5.2 9.6 0.00 0.00 0.00 69 1011.6
20260503225503 59 196 5.2 7.8 0.00 0.00 0.00 69 1011.5
20260503225004 59 186 2.6 7.8 0.00 0.00 0.00 68 1011.6
20260503224504 59 178 3.5 6.1 0.00 0.00 0.00 68 1011.7
20260503224004 59 183 1.7 7.8 0.00 0.00 0.00 68 1011.7
20260503223503 59 178 3.5 7.8 0.00 0.00 0.00 67 1011.6
20260503223004 60 165 3.5 7.8 0.00 0.00 0.00 67 1011.5
20260503222504 60 164 3.5 6.1 0.00 0.00 0.00 66 1011.4
20260503222004 60 172 1.7 6.1 0.00 0.00 0.00 66 1011.5
20260503221503 60 184 3.5 6.1 0.00 0.00 0.00 65 1011.7
20260503221004 60 194 1.7 7.0 0.00 0.00 0.00 65 1011.5
20260503220505 60 203 3.5 7.0 0.00 0.00 0.00 64 1011.6
20260503220008 60 202 3.5 7.8 0.00 0.00 0.00 64 1011.5
20260503215504 60 191 2.6 7.8 0.00 0.00 0.00 63 1011.5
20260503215004 61 186 6.1 7.8 0.00 0.00 0.00 63 1011.3
20260503214504 61 169 3.5 7.0 0.00 0.00 0.00 62 1011.3
20260503214004 61 165 3.5 7.0 0.00 0.00 0.00 62 1011.3
20260503213503 61 178 3.5 7.8 0.00 0.00 0.00 62 1011.4
20260503213004 61 187 3.5 7.8 0.00 0.00 0.00 62 1011.1
20260503212504 61 202 5.2 11.3 0.00 0.00 0.00 61 1011.2
20260503212005 61 208 5.2 11.3 0.00 0.00 0.00 61 1011.0
20260503211504 62 201 5.2 9.6 0.00 0.00 0.00 60 1010.9
20260503211003 62 193 5.2 7.8 0.00 0.00 0.00 60 1010.9
20260503210503 62 194 3.5 9.6 0.00 0.00 0.00 60 1011.0
20260503210005 62 198 4.3 9.6 0.00 0.00 0.00 59 1010.8
20260503205504 62 199 6.1 9.6 0.00 0.00 0.00 59 1011.0
20260503205004 62 193 3.5 9.6 0.00 0.00 0.00 59 1010.7
20260503204504 63 181 2.6 7.0 0.00 0.00 0.00 58 1010.8
20260503204003 63 177 1.7 5.2 0.00 0.00 0.00 58 1010.8
20260503203502 63 184 3.5 7.0 0.00 0.00 0.00 58 1010.7
20260503203002 63 189 2.6 7.8 0.00 0.00 0.00 58 1010.7
20260503202503 63 197 4.3 7.8 0.00 0.00 0.00 57 1010.6
20260503202001 64 201 5.2 7.8 0.00 0.00 0.00 56 1010.7
20260503201502 64 176 3.5 7.0 0.00 0.00 0.00 56 1010.6
20260503201002 64 171 3.5 7.0 0.00 0.00 0.00 55 1010.3
20260503200502 64 197 3.5 9.6 0.00 0.00 0.00 54 1010.0
20260503200002 64 208 3.5 9.6 0.00 0.00 0.00 54 1010.0
20260503195502 64 201 4.3 9.6 0.00 0.00 0.00 54 1009.9
20260503195002 64 191 3.5 9.6 0.00 0.00 0.00 55 1009.9
20260503194502 65 195 4.3 9.6 0.00 0.00 0.00 55 1009.8
20260503194002 65 199 4.3 7.0 0.00 0.00 0.00 54 1009.6
20260503193502 65 196 3.5 7.8 0.00 0.00 0.00 54 1009.6
20260503193003 65 195 4.3 9.6 0.00 0.00 0.00 54 1009.5
20260503192502 65 197 4.3 9.6 0.00 0.00 0.00 54 1009.6
20260503192002 65 196 3.5 9.6 0.00 0.00 0.00 53 1009.6
20260503191502 65 187 5.2 9.6 0.00 0.00 0.00 53 1009.8
20260503191001 66 199 5.2 9.6 0.00 0.00 0.00 53 1009.5
20260503190502 66 202 3.5 9.6 0.00 0.00 0.00 53 1009.6
20260503190002 66 193 6.1 9.6 0.00 0.00 0.00 52 1009.4
20260503185502 66 193 5.2 9.6 0.00 0.00 0.00 52 1009.5
20260503185002 67 192 4.3 9.6 0.00 0.00 0.00 52 1009.2
20260503184503 67 211 2.6 12.2 0.00 0.00 0.00 52 1009.2
20260503184002 67 214 7.0 12.2 0.00 0.00 0.00 51 1009.3
20260503183502 67 202 1.7 9.6 0.00 0.00 0.00 51 1009.3
20260503183002 67 210 4.3 11.3 0.00 0.00 0.00 50 1009.2
20260503182502 68 219 6.1 11.3 0.00 0.00 0.00 49 1009.1
20260503182003 68 215 4.3 11.3 0.00 0.00 0.00 48 1009.0
20260503181503 68 207 4.3 11.3 0.00 0.00 0.00 48 1009.4
20260503181002 68 213 6.1 13.9 0.00 0.00 0.00 49 1009.2
20260503180502 68 220 7.0 13.9 0.00 0.00 0.00 49 1009.3
20260503180002 69 203 4.3 9.6 0.00 0.00 0.00 49 1009.2
20260503175503 68 187 6.1 9.6 0.00 0.00 0.00 50 1009.1
20260503175002 68 216 6.1 13.0 0.00 0.00 0.00 50 1009.3
20260503174502 68 223 4.3 13.0 0.00 0.00 0.00 50 1008.9
20260503174002 69 202 5.2 13.9 0.00 0.00 0.00 50 1009.2
20260503173502 69 218 6.1 13.9 0.00 0.00 0.00 50 1009.1
20260503173002 69 230 7.0 12.2 0.00 0.00 0.00 49 1009.2
20260503172502 70 191 3.5 12.2 0.00 0.00 0.00 50 1009.0
20260503172002 68 187 7.0 12.2 0.00 0.00 0.00 52 1009.0
20260503171503 69 201 3.5 13.0 0.00 0.00 0.00 52 1009.0
20260503171003 69 205 7.0 13.0 0.00 0.00 0.00 52 1009.1
20260503170502 69 216 5.2 13.0 0.00 0.00 0.00 52 1008.9
20260503151002 70 209 6.1 12.2 0.00 0.00 0.00 52 1009.2
20260503150502 69 224 7.0 15.6 0.00 0.00 0.00 53 1009.1
20260503131003 69 232 6.1 11.3 0.00 0.00 0.00 58 1010.1
20260503130502 69 244 6.1 11.3 0.00 0.00 0.00 58 1010.1
20260503110502 66 228 3.5 7.8 0.00 0.00 0.00 70 1011.5
20260503090502 60 202 1.7 5.2 0.00 0.00 0.00 82 1012.2
20260503081502 58 199 1.7 5.2 0.00 0.00 0.00 86 1012.1
20260503081002 58 211 1.7 6.1 0.00 0.00 0.00 87 1012.1
20260503080502 58 212 3.5 6.1 0.00 0.00 0.00 86 1012.2
20260503072503 58 186 3.5 6.1 0.00 0.00 0.00 86 1011.9
20260503072003 58 185 3.5 6.1 0.00 0.00 0.00 86 1012.0
20260503071502 58 192 3.5 6.1 0.00 0.00 0.00 86 1011.6
20260503071003 58 178 2.6 5.2 0.00 0.00 0.00 86 1011.6
20260503070503 58 151 0.9 5.2 0.00 0.00 0.00 87 1011.5
20260503055002 57 192 1.7 6.1 0.00 0.00 0.00 89 1011.7
20260503054503 57 194 2.6 6.1 0.00 0.00 0.00 88 1011.7
20260503054003 57 198 1.7 5.2 0.00 0.00 0.00 88 1011.7
20260503053502 57 188 2.6 6.1 0.00 0.00 0.00 88 1011.7
20260503053003 57 174 2.6 6.1 0.00 0.00 0.00 88 1011.5
20260503052502 57 183 1.7 6.1 0.00 0.00 0.00 87 1011.5
20260503052002 57 188 2.6 6.1 0.00 0.00 0.00 87 1011.5
20260503051503 57 194 3.5 5.2 0.00 0.00 0.00 87 1011.5
20260503051002 57 194 2.6 5.2 0.00 0.00 0.00 87 1011.6
20260503050503 57 184 2.6 6.1 0.00 0.00 0.00 87 1011.5
20260503050003 57 188 3.5 6.1 0.00 0.00 0.00 87 1011.4
20260503045502 57 192 1.7 6.1 0.00 0.00 0.00 87 1011.3
20260503045003 57 189 4.3 6.1 0.00 0.00 0.00 87 1011.3
20260503044503 57 193 1.7 6.1 0.00 0.00 0.00 87 1011.3
20260503044003 57 194 4.3 7.0 0.00 0.00 0.00 88 1011.7
20260503043503 57 188 3.5 7.0 0.00 0.00 0.00 88 1011.3
20260503043003 57 186 2.6 5.2 0.00 0.00 0.00 88 1011.5
20260503042502 57 187 2.6 6.1 0.00 0.00 0.00 88 1011.4
20260503042002 57 186 3.5 6.1 0.00 0.00 0.00 89 1011.7
20260503041503 58 171 2.6 6.1 0.00 0.00 0.00 89 1011.6
20260503041004 58 175 2.6 6.1 0.00 0.00 0.00 89 1011.6
20260503040502 57 194 3.5 7.8 0.00 0.00 0.00 89 1011.5
20260503040003 58 204 5.2 7.8 0.00 0.00 0.00 89 1011.7
20260503035504 58 216 2.6 7.0 0.00 0.00 0.00 90 1011.8
20260503035003 58 223 2.6 7.0 0.00 0.00 0.00 90 1011.5
20260503034503 58 223 3.5 7.0 0.00 0.00 0.00 90 1011.3
20260503034003 58 212 3.5 6.1 0.00 0.00 0.00 90 1011.6
20260503033502 58 201 1.7 6.1 0.00 0.00 0.00 90 1011.6
20260503033003 58 206 3.5 7.0 0.00 0.00 0.00 90 1011.8
20260503032503 58 217 3.5 9.6 0.00 0.00 0.00 90 1011.7
20260503032002 58 219 4.3 9.6 0.00 0.00 0.00 90 1011.7
20260503031503 58 208 4.3 9.6 0.00 0.00 0.00 90 1011.9
20260503031003 58 199 4.3 9.6 0.00 0.00 0.00 90 1011.9
20260503030503 58 198 4.3 9.6 0.00 0.00 0.00 90 1011.9
20260503030004 58 201 3.5 9.6 0.00 0.00 0.00 90 1011.9
20260503025503 58 207 4.3 7.8 0.00 0.00 0.00 90 1012.0
20260503025002 58 203 3.5 7.8 0.00 0.00 0.00 90 1011.9